Flag for Sweden Weather past 2 weeks in Norrköping, Sweden

Now
36 °F

Light rain. Low clouds.


Feels Like: 30 °F
Forecast: 32 / 38 °F
Wind: 7 mph from Northeast

Location: Norrkoping Airport

Current Time: Mar 3, 2015 at 12:18:46 AM

Latest Report: Mar 2, 2015 at 11:50 PM


Visibility: 3 mi

Pressure: 29.33 "Hg

Humidity: 100%

Dew point: 36 °F

Location of NorrköpingLocation

Historic Weather in Norrköping — Graph

°F

Norrköping temperature yesterday

Maximum temperature yesterday: 45 °F (at 11:20 AM)
Minimum temperature yesterday: 36 °F (at 7:20 PM)
Average temperature yesterday: 39 °F

Past Weeks' High & Low Weather Summary

 TemperatureHumidityPressure
High46 °F (Feb 19, 11:50 AM)100% (Feb 20, 5:20 PM)30.57 "Hg (Feb 20, 5:20 PM)
Low27 °F (Feb 26, 7:50 AM)61% (Feb 25, 12:50 PM)29.15 "Hg (Feb 21, 11:20 PM)
Average36 °F85%29.77 "Hg
* Reported Feb 15 11:20 PM — Mar 2 11:20 PM, Norrköping, Weather by CustomWeather, © 2015

Note: Actual official high and low records may vary slightly from our data, if they occured in-between our weather recording intervals... More about our weather records

Advertising

Norrköping weather history for previous 24 hours

 ConditionsComfort  
Time TempWeatherWind HumidityBarometerVisibility
11:20 PM
Mon, Mar 2
36 °FFog.7 mph100%29.36 "Hg1 mi
10:50 PM36 °FFog.7 mph100%29.33 "Hg1 mi
10:20 PM36 °FFog.8 mph100%29.33 "Hg4 mi
9:50 PM36 °FDrizzle. Low clouds.5 mph100%29.33 "Hg6 mi
9:20 PM36 °FPassing clouds.6 mph100%29.33 "HgN/A
8:50 PM36 °FPassing clouds.6 mph93%29.33 "HgN/A
8:20 PM36 °FClear.6 mph93%29.33 "Hg10 mi
7:50 PM36 °FClear.7 mph93%29.33 "Hg10 mi
7:20 PM36 °FClear.7 mph93%29.33 "Hg10 mi
6:50 PM37 °FClear.6 mph87%29.30 "Hg10 mi
6:20 PM37 °FClear.7 mph87%29.30 "Hg10 mi
5:50 PM37 °FClear.7 mph87%29.30 "Hg10 mi
5:20 PM39 °FSunny.6 mph81%29.27 "Hg10 mi
4:50 PM41 °FSunny.6 mph70%29.27 "Hg10 mi
4:20 PM43 °FSunny.7 mph66%29.27 "Hg10 mi
3:50 PM43 °FSunny.8 mph71%29.27 "Hg10 mi
3:20 PM43 °FScattered clouds.6 mph66%29.27 "HgN/A
2:50 PM43 °FPartly sunny.8 mph71%29.27 "HgN/A
2:20 PM45 °FPartly sunny.8 mph66%29.27 "HgN/A
1:50 PM43 °FPartly sunny.6 mph66%29.27 "HgN/A
1:20 PM43 °FScattered clouds.7 mph71%29.27 "HgN/A
12:50 PM43 °FScattered clouds.8 mph71%29.27 "HgN/A
12:20 PM43 °FScattered clouds.10 mph71%29.27 "HgN/A
11:50 AM43 °FBroken clouds.12 mph61%29.27 "HgN/A
11:20 AM45 °FPartly sunny.9 mph61%29.27 "HgN/A
10:50 AM43 °FPartly sunny.8 mph71%29.27 "HgN/A
10:20 AM43 °FBroken clouds.10 mph71%29.27 "HgN/A
9:50 AM41 °FScattered clouds.10 mph81%29.27 "HgN/A
9:20 AM41 °FPartly sunny.8 mph81%29.27 "HgN/A
8:50 AM41 °FPartly sunny.7 mph81%29.27 "HgN/A
8:20 AM39 °FPartly sunny.5 mph87%29.27 "HgN/A
7:50 AM37 °FPartly sunny.7 mph93%29.27 "HgN/A
7:20 AM37 °FPartly sunny.9 mph93%29.27 "HgN/A
6:50 AM37 °FPartly sunny.7 mph93%29.27 "HgN/A
6:20 AM39 °FLight rain. Passing clouds.7 mph81%29.27 "HgN/A
5:50 AM39 °FOvercast.6 mph81%29.24 "HgN/A
5:20 AM39 °FOvercast.7 mph87%29.24 "HgN/A
4:50 AM37 °FOvercast.7 mph93%29.24 "HgN/A
4:20 AM37 °FOvercast.5 mph93%29.24 "HgN/A
3:50 AM37 °FOvercast.6 mph93%29.24 "HgN/A
3:20 AM37 °FOvercast.7 mph93%29.24 "HgN/A
2:50 AM37 °FOvercast.8 mph93%29.24 "HgN/A
2:20 AM37 °FOvercast.10 mph93%29.27 "HgN/A
1:50 AM37 °FOvercast.10 mph93%29.27 "HgN/A
1:20 AM37 °FOvercast.9 mph93%29.27 "HgN/A
12:50 AM37 °FMostly cloudy.9 mph87%29.27 "HgN/A
12:20 AM37 °FOvercast.8 mph87%29.27 "HgN/A
Weather by CustomWeather, © 2015

See weather overviewHow to use our weather pages